TimeCST,TemperatureF,Dew PointF,Humidity,Sea Level PressureIn,VisibilityMPH,Wind Direction,Wind SpeedMPH,Gust SpeedMPH,PrecipitationIn,Events,Conditions,WindDirDegrees,DateUTC
12:15 AM,30.2,23.0,75,29.67,10.0,North,11.5,19.6,N/A,,Overcast,360,2013-01-30 06:15:00
12:35 AM,30.2,23.0,75,29.63,10.0,North,12.7,19.6,N/A,,Overcast,10,2013-01-30 06:35:00
12:55 AM,30.2,23.0,75,29.60,10.0,North,13.8,21.9,N/A,,Overcast,360,2013-01-30 06:55:00
1:15 AM,28.4,21.2,74,29.61,10.0,North,12.7,19.6,N/A,,Overcast,360,2013-01-30 07:15:00
1:35 AM,28.4,21.2,74,29.62,10.0,North,10.4,23.0,N/A,,Overcast,10,2013-01-30 07:35:00
1:55 AM,28.4,21.2,74,29.61,10.0,North,10.4,19.6,N/A,,Overcast,10,2013-01-30 07:55:00
2:15 AM,28.4,21.2,74,29.61,10.0,North,8.1,21.9,N/A,,Overcast,360,2013-01-30 08:15:00
2:35 AM,28.4,19.4,69,29.62,10.0,North,9.2,17.3,N/A,,Overcast,360,2013-01-30 08:35:00
2:55 AM,28.4,19.4,69,29.61,10.0,North,12.7,23.0,N/A,,Overcast,360,2013-01-30 08:55:00
3:15 AM,26.6,19.4,74,29.63,10.0,North,11.5,20.7,N/A,,Overcast,360,2013-01-30 09:15:00
3:35 AM,26.6,17.6,69,29.63,10.0,North,10.4,19.6,N/A,,Overcast,350,2013-01-30 09:35:00
3:55 AM,26.6,17.6,69,29.63,10.0,North,9.2,17.3,N/A,,Overcast,350,2013-01-30 09:55:00
4:15 AM,24.8,17.6,74,29.64,10.0,North,12.7,18.4,N/A,,Overcast,360,2013-01-30 10:15:00
4:35 AM,24.8,17.6,74,29.63,10.0,North,11.5,17.3,N/A,,Overcast,10,2013-01-30 10:35:00
4:55 AM,24.8,17.6,74,29.63,10.0,North,10.4,16.1,N/A,,Overcast,360,2013-01-30 10:55:00
5:15 AM,24.8,17.6,74,29.63,10.0,NNW,9.2,-,N/A,,Overcast,330,2013-01-30 11:15:00
5:35 AM,24.8,17.6,74,29.63,10.0,NNW,6.9,-,N/A,,Overcast,340,2013-01-30 11:35:00
5:55 AM,24.8,17.6,74,29.62,10.0,NNW,9.2,-,N/A,,Overcast,340,2013-01-30 11:55:00
6:15 AM,24.8,17.6,74,29.60,10.0,NNW,9.2,-,N/A,,Overcast,340,2013-01-30 12:15:00
6:35 AM,24.8,17.6,74,29.59,10.0,NNW,9.2,18.4,N/A,,Overcast,340,2013-01-30 12:35:00
6:55 AM,24.8,17.6,74,29.58,10.0,North,10.4,-,N/A,,Overcast,350,2013-01-30 12:55:00
7:15 AM,24.8,17.6,74,29.58,10.0,NNW,10.4,19.6,N/A,,Mostly Cloudy,340,2013-01-30 13:15:00
7:35 AM,24.8,17.6,74,29.60,10.0,North,12.7,24.2,N/A,,Scattered Clouds,350,2013-01-30 13:35:00
7:55 AM,24.8,17.6,74,29.60,10.0,NNW,11.5,18.4,N/A,,Mostly Cloudy,340,2013-01-30 13:55:00
8:15 AM,24.8,17.6,74,29.60,10.0,NNW,13.8,19.6,N/A,,Overcast,340,2013-01-30 14:15:00
8:35 AM,23.0,17.6,80,29.61,5.0,NW,9.2,17.3,N/A,Snow,Light Snow,320,2013-01-30 14:35:00
8:55 AM,23.0,15.8,74,29.61,7.0,NNW,15.0,21.9,N/A,Snow,Light Snow,330,2013-01-30 14:55:00
9:15 AM,21.2,15.8,80,29.62,7.0,NNW,10.4,16.1,N/A,Snow,Light Snow,330,2013-01-30 15:15:00
9:35 AM,21.2,15.8,80,29.61,5.0,NNW,12.7,20.7,N/A,Snow,Light Snow,330,2013-01-30 15:35:00
9:55 AM,21.2,15.8,80,29.61,3.0,NW,9.2,19.6,N/A,Snow,Light Snow,320,2013-01-30 15:55:00
10:15 AM,21.2,15.8,80,29.61,4.0,NW,11.5,21.9,N/A,Snow,Light Snow,320,2013-01-30 16:15:00
10:35 AM,19.4,12.2,74,29.61,7.0,NW,15.0,20.7,N/A,Snow,Light Snow,320,2013-01-30 16:35:00
10:55 AM,19.4,12.2,74,29.62,10.0,NNW,12.7,23.0,N/A,,Overcast,330,2013-01-30 16:55:00
11:15 AM,19.4,12.2,74,29.62,7.0,NW,12.7,16.1,N/A,Snow,Light Snow,320,2013-01-30 17:15:00
11:35 AM,19.4,12.2,74,29.61,10.0,NNW,10.4,20.7,N/A,,Overcast,330,2013-01-30 17:35:00
11:55 AM,19.4,10.4,68,29.61,10.0,NW,10.4,18.4,N/A,,Overcast,320,2013-01-30 17:55:00
12:15 PM,19.4,10.4,68,29.61,10.0,NNW,13.8,26.5,N/A,,Overcast,330,2013-01-30 18:15:00
12:35 PM,19.4,10.4,68,29.61,10.0,NW,15.0,21.9,N/A,,Overcast,320,2013-01-30 18:35:00
12:55 PM,19.4,10.4,68,29.61,10.0,NW,15.0,23.0,N/A,Snow,Light Snow,320,2013-01-30 18:55:00
1:15 PM,19.4,10.4,68,29.60,10.0,NNW,13.8,25.3,N/A,,Overcast,330,2013-01-30 19:15:00
1:35 PM,17.6,8.6,68,29.61,10.0,NNW,13.8,23.0,N/A,,Overcast,330,2013-01-30 19:35:00
1:55 PM,17.6,10.4,73,29.60,7.0,NNW,12.7,19.6,N/A,Snow,Light Snow,330,2013-01-30 19:55:00
2:15 PM,17.6,8.6,68,29.60,7.0,NNW,15.0,24.2,N/A,Snow,Light Snow,330,2013-01-30 20:15:00
2:35 PM,17.6,10.4,73,29.60,2.5,NNW,13.8,24.2,N/A,Snow,Light Snow,330,2013-01-30 20:35:00
2:55 PM,17.6,8.6,68,29.61,7.0,NNW,17.3,23.0,N/A,Snow,Light Snow,340,2013-01-30 20:55:00
3:15 PM,17.6,8.6,68,29.61,7.0,NNW,16.1,21.9,N/A,Snow,Light Snow,330,2013-01-30 21:15:00
3:35 PM,17.6,8.6,68,29.62,7.0,NNW,15.0,-,N/A,Snow,Light Snow,330,2013-01-30 21:35:00
3:55 PM,17.6,8.6,68,29.62,7.0,NNW,15.0,19.6,N/A,Snow,Light Snow,340,2013-01-30 21:55:00
4:15 PM,17.6,8.6,68,29.63,10.0,NNW,13.8,23.0,N/A,,Overcast,330,2013-01-30 22:15:00
4:35 PM,15.8,6.8,68,29.63,10.0,NW,16.1,21.9,N/A,,Overcast,320,2013-01-30 22:35:00
4:55 PM,15.8,6.8,68,29.64,10.0,NW,12.7,21.9,N/A,,Overcast,320,2013-01-30 22:55:00
5:15 PM,15.8,6.8,68,29.64,10.0,NNW,15.0,20.7,N/A,,Overcast,330,2013-01-30 23:15:00
5:35 PM,15.8,6.8,68,29.64,10.0,NNW,13.8,19.6,N/A,,Overcast,330,2013-01-30 23:35:00
6:15 PM,15.8,6.8,68,29.65,10.0,NNW,12.7,20.7,N/A,,Overcast,330,2013-01-31 00:15:00
6:35 PM,15.8,6.8,68,29.66,10.0,NNW,9.2,16.1,N/A,,Overcast,340,2013-01-31 00:35:00
6:55 PM,15.8,6.8,68,29.66,10.0,NNW,9.2,21.9,N/A,,Overcast,340,2013-01-31 00:55:00
7:15 PM,15.8,6.8,68,29.67,10.0,NNW,9.2,-,N/A,,Overcast,330,2013-01-31 01:15:00
7:35 PM,15.8,6.8,68,29.66,10.0,NW,9.2,18.4,N/A,,Overcast,320,2013-01-31 01:35:00
7:55 PM,15.8,6.8,68,29.66,7.0,NNW,12.7,19.6,N/A,Snow,Light Snow,330,2013-01-31 01:55:00
8:15 PM,15.8,6.8,68,29.67,10.0,NNW,9.2,19.6,N/A,Snow,Light Snow,330,2013-01-31 02:15:00
8:35 PM,15.8,6.8,68,29.67,10.0,NNW,11.5,20.7,N/A,,Overcast,330,2013-01-31 02:35:00
8:55 PM,15.8,6.8,68,29.67,10.0,NNW,11.5,21.9,N/A,,Overcast,330,2013-01-31 02:55:00
9:15 PM,15.8,6.8,68,29.68,7.0,NW,9.2,18.4,N/A,Snow,Light Snow,310,2013-01-31 03:15:00
9:35 PM,14.0,6.8,73,29.68,4.0,WNW,11.5,21.9,N/A,Snow,Light Snow,300,2013-01-31 03:35:00
9:55 PM,14.0,8.6,79,29.69,1.5,NNW,12.7,18.4,N/A,Snow,Light Snow,330,2013-01-31 03:55:00
10:15 PM,14.0,5.0,67,29.69,10.0,NNW,9.2,-,N/A,,Overcast,330,2013-01-31 04:15:00
10:35 PM,14.0,6.8,73,29.69,4.0,NW,13.8,19.6,N/A,Snow,Light Snow,310,2013-01-31 04:35:00
10:55 PM,14.0,6.8,73,29.70,5.0,NW,12.7,18.4,N/A,Snow,Light Snow,310,2013-01-31 04:55:00
11:15 PM,14.0,6.8,73,29.70,7.0,WNW,13.8,-,N/A,,Overcast,300,2013-01-31 05:15:00
11:35 PM,12.2,5.0,73,29.70,10.0,NW,10.4,17.3,N/A,,Overcast,310,2013-01-31 05:35:00
11:55 PM,12.2,5.0,73,29.71,7.0,NW,11.5,17.3,N/A,,Overcast,320,2013-01-31 05:55:00